STARLINK-5642, 55430

Orbit data source: Space-Track

STARLINK-5642, 55430 is a payload satellite owned by SpaceX/Seattle (US) in LEO that was launched on Tue, 31 Jan 2023 UTC via an FALCON 9 launch vehicle from the Air Force Western Test Range (AFWTR). Payload-class satellites include a variety of spacecraft equipped with specific instruments for various scientific and technological missions. These include communications satellites like Starlink; space stations such as the ISS; scientific satellites like the Hubble; Earth observation satellites from companies like Planet Labs, Umbra, and HawkEye 360; GPS; miniature CubeSats for education and research; and military/defense satellites.

Loading next visibility...
Identifier
55430, 2023-014AR
Orbit
LEO
Country
Flag of USUS
Related business
Manufacturer
SpaceX/Seattle
Mission
Operational Commercial Communications
Bus & Motor
STARLINK, Unknown motor
Mass
305 kg wet, ~290 kg dry
Launch date (UTC)
2023-01-31 (3 years ago)
Launch vehicle
FALCON 9
Launch site
Air Force Western Test Range (AFWTR)
Object type
Payload
Rocket body
Debris
Shape & HBR
Box + 1 Pan, 10.1 m
Radar Cross Section
13.562 m², Large (>1 m²)

Expand to show TLE details & history
Last TLE update: 2 days ago

TLE from 2 days ago
0 STARLINK-5642
1 55430U 23014AR  26171.38650054 -.00000231  00000-0 -11534-4 0  9991
2 55430  69.9992 205.4374 0003501 276.3343  83.7417 14.98330664186453
Epoch: 2026-06-20T09:16Z
TLE epoch observation values (Epoch: 2026-06-20T09:16:33.646Z)
Latitude
-0.00006°
Longitude
157.69532°
Altitude
574.213 km
Speed
7.574 km/s
True Right ascension
13h 41m 44s
True Declination
0° 00' 00"
Sunlit
Object was in full shadow at epoch
Visualization orbit readout
Latitude
Unknown
Longitude
Unknown
Altitude
Unknown
Speed
Unknown
Apparent Right ascension
Unknown
Apparent Declination
Unknown
Sunlit
N/A
Visualization observer readout
Local Sidereal Time
21:30:44
Azimuth
Unknown
Elevation
Unknown
Doppler factor
Unknown
Orbital elements
Apogee altitude
572.435 km
Perigee altitude
567.57 km
Semi-major axis
6,948.139 km
Eccentricity
0.00035
Inclination
69.9992°
RAAN
205.4374°
Arg. of periapsis
276.3343°
True anomaly
83.78158°
Mean anomaly
83.7417°
Eccentric anomaly
83.76164°
Mean motion
3.74749 °/min
Orbital period
96.06 mins
BSTAR
-0.000011534
Loading maneuver chart data...
Computing Atmospheric mass density...

Documentation

Showing up to 5 results
|